Theta_e
344 345 344 345 342 339 336 333 328 321 322 327 326 332 335 341 342 342 343 336 330 327 325 324 325 327 329 331 333 334 334 336 337 338 339 340 341 340
343 344 342 342 341 340 338 337 332 327 322 329 331 332 333 339 341 339 341 331 331 328 326 324 322 324 326 326 327 330 331 331 332 333 334 336 337 337
341 341 340 339 338 336 337 333 332 331 323 327 332 335 334 332 337 338 341 339 339 330 329 325 321 322 322 324 324 326 327 328 328 329 331 331 332 334
337 335 335 336 337 335 332 328 325 328 324 320 324 325 326 330 331 333 336 342 339 336 328 323 321 320 319 321 320 321 321 322 323 325 327 328 329 331
331 331 332 331 329 328 329 328 325 325 322 319 318 320 320 321 321 324 333 335 338 335 325 323 321 320 319 318 317 317 316 315 316 318 321 324 326 327
330 329 328 326 327 327 327 326 324 322 320 320 317 317 318 321 324 323 326 329 330 336 332 327 323 320 318 317 317 317 315 312 310 311 313 315 317 319
330 327 328 327 327 327 326 325 322 318 316 314 313 312 312 315 314 317 320 325 327 332 332 335 329 326 322 317 322 320 314 312 310 310 309 309 309 311
326 325 326 320 317 313 312 312 316 317 316 314 312 311 314 316 317 317 318 317 316 330 329 331 335 331 331 327 320 318 315 311 309 309 308 307 307 307
325 325 323 323 321 321 311 310 309 308 310 316 315 316 316 318 319 319 319 320 319 325 328 325 331 332 337 335 318 316 311 310 308 308 307 307 306 304
327 327 327 325 322 323 323 318 318 319 316 314 314 316 319 322 323 319 316 316 317 320 322 316 325 330 330 332 316 313 311 306 306 306 306 306 303 302
324 329 328 327 316 306 323 321 322 322 315 308 309 307 304 300 303 309 310 312 314 317 324 325 328 327 328 329 322 309 307 304 304 304 305 305 302 301
316 327 312 323 310 304 320 321 319 319 320 319 320 311 305 312 305 309 314 314 316 318 327 326 327 326 321 330 325 315 311 303 302 303 305 304 302 312
319 320 322 305 304 303 306 322 318 320 317 318 317 315 316 317 318 319 320 320 319 321 327 327 324 324 323 325 326 323 323 312 313 306 302 303 302 311
320 321 321 306 301 299 301 307 303 307 316 313 311 311 312 313 314 317 323 329 329 329 329 329 325 325 323 321 322 326 327 322 322 322 318 308 301 301
321 317 304 301 299 301 300 302 300 313 313 311 310 311 313 314 316 317 327 329 330 332 330 329 327 326 324 322 322 324 323 325 324 325 324 317 314 311
308 316 313 308 305 310 308 305 313 314 313 311 312 313 314 313 313 315 321 323 326 326 329 330 329 328 324 324 324 323 324 321 326 326 325 322 323 321
309 316 316 316 315 315 317 315 314 314 312 312 313 312 312 313 313 316 320 321 321 321 322 326 329 327 313 316 323 324 322 323 326 325 325 324 324 325
303 311 313 314 313 315 315 314 314 311 314 315 314 314 313 312 312 316 320 321 321 321 321 323 324 323 319 308 304 316 322 322 324 325 324 320 321 314
299 310 311 313 314 314 316 314 314 315 316 315 314 313 313 313 311 318 318 323 319 320 322 324 324 323 318 315 305 296 303 323 322 323 322 321 314 304
301 302 312 312 314 314 314 316 315 315 315 315 315 314 314 314 316 317 318 321 319 320 319 322 324 322 319 318 307 301 292 309 318 321 310 304 300 296
300 303 308 313 313 314 316 315 315 315 314 313 313 314 316 317 317 318 319 303 308 320 318 321 324 303 315 313 306 301 298 294 298 306 311 310 310 310
300 302 306 309 311 313 313 313 312 312 314 314 314 317 318 320 318 320 322 321 319 320 321 324 324 324 322 314 305 303 302 298 295 295 295 297 304 310
300 302 306 307 309 310 311 311 311 312 313 313 314 315 316 319 321 323 322 321 322 321 321 322 322 322 316 310 305 308 307 305 301 297 294 294 294 295
Wind_Speed
12 11 7 3 4 4 6 5 6 5 7 4 4 5 4 4 7 5 4 6 9 11 12 12 12 13 12 11 14 13 14 13 13 13 13 14 15 15
7 8 8 5 5 4 4 4 5 8 6 4 4 4 5 4 4 5 6 9 11 12 13 13 13 13 14 12 15 15 14 13 13 12 12 13 13 13
6 8 9 7 4 4 2 1 4 3 6 6 4 5 3 4 5 6 6 6 6 10 11 13 12 13 11 14 15 15 14 13 13 12 13 13 12 12
8 7 7 6 7 5 2 2 2 4 2 3 3 3 4 4 5 7 6 5 5 8 10 8 12 12 10 13 13 13 13 13 13 13 13 12 12 12
6 9 8 5 5 3 3 3 3 4 4 3 4 3 3 4 6 6 6 4 4 6 6 8 7 9 11 12 12 13 13 13 13 12 12 12 12 11
6 5 7 7 6 5 3 3 2 2 3 3 4 4 4 5 3 4 5 3 5 4 5 6 6 8 10 12 12 13 14 12 11 12 12 12 12 12
7 7 8 8 8 6 4 4 3 1 2 3 4 4 4 4 5 4 4 4 5 3 4 4 3 4 5 8 9 14 12 12 11 12 12 12 11 12
6 6 6 11 9 11 8 7 5 3 3 2 4 4 5 4 4 6 6 6 5 3 2 6 4 6 5 6 10 11 13 11 11 11 11 12 12 11
6 7 8 7 9 7 9 9 8 10 10 6 6 5 5 5 5 8 7 7 8 4 5 8 3 8 5 4 10 12 13 13 14 13 12 12 11 11
8 6 6 7 11 11 9 9 9 9 9 8 9 10 8 8 7 5 7 7 9 8 3 9 6 8 3 4 12 15 14 13 13 13 13 12 11 11
13 12 11 9 9 14 9 8 9 8 7 11 12 11 10 10 9 4 8 7 10 10 6 9 6 3 3 3 2 11 14 13 12 12 11 10 9 8
20 9 14 14 14 14 10 7 6 8 5 5 3 3 8 9 13 8 7 8 9 9 5 5 4 3 2 2 3 4 4 6 9 10 11 11 11 4
7 14 9 14 15 16 16 10 12 6 7 4 3 3 5 6 5 6 9 8 8 11 4 3 2 0 2 2 3 4 6 4 4 5 8 10 12 9
11 11 11 16 17 17 14 14 13 8 4 3 4 4 5 6 5 6 7 7 9 14 5 3 2 4 4 2 3 3 5 4 6 6 6 7 7 9
10 12 8 5 14 17 20 18 13 6 5 5 6 6 6 5 6 7 6 6 10 10 5 5 4 3 3 3 3 4 5 4 5 5 6 6 5 5
11 10 10 5 7 9 9 6 9 8 8 6 6 5 4 4 7 7 3 5 7 7 4 5 5 4 7 6 4 4 4 4 4 4 5 4 5 5
11 10 10 10 8 5 7 8 9 7 7 6 6 8 7 7 8 5 3 5 8 5 2 2 5 2 6 4 3 3 4 2 4 4 5 4 4 5
5 13 12 11 11 10 9 9 9 10 9 9 8 8 8 6 8 5 2 6 9 3 3 2 5 7 4 7 17 4 1 2 3 5 3 3 4 5
6 9 11 10 10 12 10 11 10 10 10 9 9 8 8 6 6 3 3 6 3 2 4 3 7 5 4 3 3 20 4 4 1 3 5 5 4 4
7 8 10 10 10 10 12 11 9 6 7 8 7 6 5 5 5 3 5 7 4 3 4 7 7 4 3 4 5 4 13 2 4 6 4 4 6 9
8 8 9 6 9 10 6 9 7 6 5 5 5 5 5 4 4 4 6 7 5 5 9 8 6 9 10 8 6 3 6 17 14 4 3 5 3 3
9 10 9 8 6 7 9 8 5 3 3 2 3 3 3 3 4 5 6 5 7 7 8 5 8 8 4 5 8 7 4 2 11 17 15 9 1 3
12 12 10 9 7 5 4 3 3 4 4 6 8 5 5 5 4 7 8 6 8 7 5 5 5 7 7 9 10 6 9 5 3 4 5 10 12 12
Wind_Direction
181 186 190 198 262 222 192 178 213 261 273 261 256 240 274 286 242 199 219 254 261 258 260 257 241 230 229 237 224 204 197 197 206 210 215 219 214 218
173 165 172 189 211 245 207 173 198 216 238 220 244 271 286 281 244 238 240 254 248 263 267 262 234 221 220 214 225 210 201 199 203 203 212 216 208 211
157 169 160 169 214 242 284 204 252 248 245 274 247 244 236 274 257 237 230 234 246 248 261 257 233 221 209 216 219 211 203 196 199 195 209 213 208 208
174 162 178 182 206 233 214 233 246 277 161 254 250 266 261 279 268 253 239 217 251 246 258 264 229 229 207 219 224 217 201 198 196 193 205 208 203 202
149 151 164 170 178 179 160 66 20 26 18 8 314 314 303 297 291 277 237 244 257 261 261 247 237 215 220 226 212 215 209 198 197 192 201 199 202 201
165 166 132 153 191 173 136 92 23 325 333 322 318 291 273 295 327 346 326 310 282 274 256 259 218 221 222 217 208 211 206 200 199 193 201 201 197 198
173 144 148 164 158 164 130 154 143 62 341 329 308 308 314 347 328 310 312 328 312 255 262 254 219 221 213 219 213 214 200 192 192 199 199 202 198 197
154 156 159 137 152 144 146 155 164 171 227 238 263 278 288 305 313 305 312 311 307 296 292 277 235 248 230 200 192 191 203 192 193 199 198 197 194 198
179 172 185 171 164 172 194 198 209 212 212 209 234 246 273 272 289 296 286 289 287 312 355 285 272 260 233 208 199 210 197 195 190 190 193 197 193 194
184 189 195 195 185 185 186 204 212 214 222 222 225 244 248 258 251 267 276 277 274 274 225 271 270 262 233 206 183 204 199 188 186 186 191 192 188 193
273 186 197 205 206 193 195 200 200 215 207 209 215 218 243 278 266 299 278 280 285 284 269 251 239 224 217 205 187 165 176 179 188 185 184 184 178 185
267 245 199 203 205 187 189 204 212 223 208 256 211 217 235 249 248 214 243 252 272 284 255 236 233 154 223 182 139 140 145 173 174 180 184 180 173 176
230 262 254 216 222 199 199 200 216 201 217 216 257 264 259 247 247 223 212 215 249 259 291 208 66 273 230 164 158 159 175 137 170 179 190 193 186 194
220 233 233 215 210 205 193 208 200 168 176 214 245 257 259 265 262 264 239 221 235 255 245 182 207 197 217 206 170 156 180 156 168 179 177 178 195 218
230 232 80 293 239 210 198 197 194 190 196 214 239 251 246 257 268 273 248 249 259 262 235 196 211 277 291 225 202 157 144 180 181 179 161 170 171 181
246 250 250 230 206 220 208 238 202 203 202 214 233 249 258 268 272 271 259 282 276 277 238 211 243 207 257 235 170 163 169 172 159 160 166 172 185 180
247 223 232 240 239 208 213 194 199 199 204 216 237 247 252 260 262 251 233 276 268 257 270 213 236 245 62 329 139 172 173 158 168 162 149 167 175 168
299 224 220 222 224 224 205 202 191 196 205 211 212 224 241 246 270 254 216 256 258 224 222 220 242 178 166 78 31 2 83 173 174 169 142 151 107 66
313 258 222 220 220 225 218 207 206 209 210 213 223 231 234 238 245 205 238 269 233 204 238 259 229 194 166 118 141 53 353 360 354 114 79 44 93 19
272 276 235 216 226 221 232 231 224 224 225 223 216 208 214 223 244 193 247 248 204 209 271 265 227 193 159 147 115 33 8 301 14 91 100 64 78 138
247 265 247 232 214 240 226 231 223 218 222 226 217 208 229 207 211 202 253 235 206 218 251 233 208 110 110 108 95 80 35 35 51 42 134 140 147 128
226 251 241 239 249 212 218 233 234 205 183 265 257 254 234 206 217 233 235 222 210 222 232 149 143 126 126 101 121 129 147 119 76 65 60 53 85 139
212 224 247 221 236 251 279 252 242 245 204 227 226 225 233 237 211 221 225 201 223 226 189 131 75 77 93 116 124 123 115 90 76 63 38 41 55 57